Goodland, KS

1:09 PM MDT on April 25, 2017 (GMT -0600)
Renner-Goodland Municipal

Weather History for KGLD - May, 2013

Change the Weather History Date:

Wednesday, May 22, 2013

  Actual Average Record
Temperature  
Mean Temperature 58 °F 61 °F  
Max Temperature 77 °F 75 °F 97 °F (1939)
Min Temperature 38 °F 48 °F 30 °F (1931)
Degree Days  
Heating Degree Days 7 5  
Month to date heating degree days 196 175  
Since 1 July heating degree days 5946 5830  
Cooling Degree Days 0 2  
Month to date cooling degree days 47 21  
Year to date cooling degree days 47 25  
Growing Degree Days 9 (Base 50)    
Moisture  
Dew Point 40 °F    
Average Humidity 59    
Maximum Humidity 92    
Minimum Humidity 25    
Precipitation  
Precipitation 0.00 in 0.10 in 1.90 in (1973)
Month to date precipitation 0.71 1.93  
Year to date precipitation 3.80 5.46  
Snow  
Snow 0.00 in 0.00 in - ()
Month to date snowfall 3.5 0.5  
Since 1 July snowfall 59.2 35.5  
Snow Depth 0.00 in    
Sea Level Pressure  
Sea Level Pressure 29.91 in    
Wind  
Wind Speed 9 mph (NNE)    
Max Wind Speed 21 mph    
Max Gust Speed 25 mph    
Visibility 10 miles    
Events      
T = Trace of Precipitation, MM = Missing Value Source: NWS Daily Summary

Daily Weather History Graph

Daily Weather History Graph

Search for Another Location

Airport or City:

Trip Planner

Search our weather history database for the weather conditions in past years. The results will help you decide how hot, cold, wet, or windy it might be!

Date:

Astronomy

May. 22, 2013 Rise Set
Actual Time 5:27 AM MDT 8:00 PM MDT
Civil Twilight 4:56 AM MDT 8:31 PM MDT
Nautical Twilight 4:17 AM MDT 9:09 PM MDT
Astronomical Twilight 3:35 AM MDT 9:52 PM MDT
Moon 5:25 PM MDT (5/22) 3:31 AM MDT (5/22)
Length of Visible Light 15h 34m
Length of Day
14h 32m
Waxing Gibbous, 92% of the Moon is Illuminated
May 22
Waxing Gibbous
May 24
Full
May 31
Last Quarter
Jun 8
New
Jun 16
First Quarter

Hourly Weather History & Observations

Time (MDT) Temp. Windchill Dew Point Humidity Pressure Visibility Wind Dir Wind Speed Gust Speed Precip Events Conditions
12:53 AM 43.0 °F 38.2 °F 37.9 °F 82% 29.89 in 10.0 mi West 8.1 mph - N/A   Clear
1:53 AM 41.0 °F 36.4 °F 36.0 °F 82% 29.88 in 10.0 mi NW 6.9 mph - N/A   Clear
2:53 AM 37.9 °F 32.1 °F 35.1 °F 89% 29.88 in 10.0 mi NW 8.1 mph - N/A   Clear
3:53 AM 42.1 °F 36.6 °F 37.9 °F 85% 29.88 in 10.0 mi WNW 9.2 mph - N/A   Clear
4:53 AM 39.9 °F 34.5 °F 36.0 °F 86% 29.90 in 10.0 mi West 8.1 mph - N/A   Clear
5:53 AM 41.0 °F 36.4 °F 37.0 °F 86% 29.90 in 10.0 mi WNW 6.9 mph - N/A   Clear
6:53 AM 46.0 °F 42.5 °F 39.9 °F 79% 29.92 in 10.0 mi WNW 6.9 mph - N/A   Clear
7:53 AM 51.1 °F - 42.1 °F 71% 29.94 in 10.0 mi North 9.2 mph - N/A   Clear
8:53 AM 54.0 °F - 43.0 °F 66% 29.95 in 10.0 mi Variable 5.8 mph - N/A   Clear
9:53 AM 57.9 °F - 43.0 °F 58% 29.94 in 10.0 mi Variable 4.6 mph - N/A   Clear
10:53 AM 62.1 °F - 41.0 °F 46% 29.94 in 10.0 mi Variable 5.8 mph - N/A   Clear
11:53 AM 64.0 °F - 39.9 °F 41% 29.93 in 10.0 mi SSE 5.8 mph - N/A   Clear
12:53 PM 69.1 °F - 41.0 °F 36% 29.91 in 10.0 mi South 5.8 mph - N/A   Clear
1:53 PM 72.0 °F - 39.9 °F 31% 29.88 in 10.0 mi WNW 6.9 mph - N/A   Clear
2:53 PM 73.0 °F - 39.0 °F 29% 29.87 in 10.0 mi ESE 4.6 mph - N/A   Clear
3:53 PM 75.9 °F - 37.9 °F 25% 29.84 in 10.0 mi ENE 4.6 mph - N/A   Clear
4:53 PM 77.0 °F - 39.0 °F 25% 29.84 in 10.0 mi ENE 9.2 mph - N/A   Clear
5:53 PM 75.0 °F - 41.0 °F 29% 29.85 in 10.0 mi ENE 12.7 mph - N/A   Clear
6:53 PM 72.0 °F - 41.0 °F 33% 29.86 in 10.0 mi ENE 13.8 mph - N/A   Clear
7:53 PM 64.9 °F - 42.1 °F 43% 29.89 in 10.0 mi ENE 12.7 mph - N/A   Clear
8:53 PM 60.1 °F - 43.0 °F 53% 29.93 in 10.0 mi ENE 11.5 mph - N/A   Clear
9:53 PM 57.9 °F - 43.0 °F 58% 29.96 in 10.0 mi ENE 13.8 mph - N/A   Clear
10:53 PM 55.9 °F - 45.0 °F 67% 29.98 in 10.0 mi ENE 15.0 mph - N/A   Clear
11:53 PM 53.1 °F - 45.0 °F 74% 30.01 in 10.0 mi ENE 15.0 mph 23.0 mph N/A   Clear